Regional Weather Roundup
Issued by NWS New Orleans/Baton Rouge, LA

Home | Current Version | Previous Version | Text Only | Print | Product List | Glossary On
Versions: 1 2 3 4 5 6 7 8 9 10 11 12 13 14 15 16 17 18 19 20 21 22 23 24 25 26 27 28 29 30 31 32 33 34 35 36 37 38 39 40 41 42 43 44 45 46 47 48 49 50
928
ASUS44 KLIX 031310
RWRLIX
NEW ORLEANS REGIONAL WEATHER ROUNDUP
NATIONAL WEATHER SERVICE NEW ORLEANS LA
700 AM CST TUE MAR 03 2015

NOTE: "FAIR" INDICATES FEW OR NO CLOUDS BELOW 12,000 FEET WITH NO
      SIGNIFICANT WEATHER AND/OR OBSTRUCTIONS TO VISIBILITY.
      SKY/WX - SKY CONDITION AND SIGNIFICANT WEATHER.
      TMP - AIR TEMPERATURE.     DP    - DEWPOINT TEMPERATURE.
      RH  - RELATIVE HUMIDITY.   PRES  - PRESSURE.
      HI  - HEAT INDEX.          WCI   - WIND CHILL INDEX.

*  THESE STATIONS ARE NOT NWS OR FAA STATIONS AND ARE NOT UNDER
   NWS QUALITY CONTROL.

LAZ038-040-048-061>063-065>067-069-031400-
SOUTHEAST LOUISIANA

CITY           SKY/WX    TMP DP  RH WIND       PRES   REMARKS
N.O. AUDUBON     N/A     66  66 100 MISG        N/A
N.O. INTL ARPT FOG       66  64  93 SE3       30.13R VSB 1/4
N.O. LAKEFRONT FOG       67  64  90 SE8       30.13S VSB<1/4
SLIDELL        FOG       65  65 100 S5        30.13S VSB 1/4
BATON ROUGE    FOG       60  59  96 CALM      30.11S VSB<1/4
BOOTHVILLE     FOG       63  63 100 SE6       30.15R VSB 1/4
BELLE CHASSE   FOG       66  64  93 SE5       30.13R VSB 1/4
BOGALUSA*      FOG       66  63  91 CALM      30.15R VSB 1/4
GALLIANO*      FOG       56  56  97 MISG      30.13S VSB 1
NEW ROADS*     FOG       52  51  99 CALM      30.11S VSB 1/4
GONZALES*      FOG       66  66 100 CALM      30.11S VSB 1/4
HAMMOND*       NOT AVBL
HOUMA*         FOG       43  43 100 CALM      30.12S VSB 1/4
PORT FOURCHON* MOSUNNY   66  66 100 SE8       30.16R FOG

$$

MSZ070-080>082-031400-
SOUTHERN MISSISSIPPI

CITY           SKY/WX    TMP DP  RH WIND       PRES   REMARKS
MCCOMB         FOG       62  62 100 CALM      30.13R VSB 1/4
GULFPORT       FOG       63  63 100 SE8       30.14R VSB 1/2
BILOXI         FOG       64  64 100 S9        30.15R VSB 1
PASCAGOULA     FOG       63  63 100 SE3       30.16R VSB 1/4
STENNIS ARPT*  FOG       63  61  94 CALM      30.14  VSB 1/4

$$

COASTAL OBSERVATIONS
LAKE AND NEARSHORE STATIONS

STATION/POSITION TIME  TEMP    WIND        PRES    WAVE
                       AIR SEA DIR/SP/G            HT/PER
                 (UTC) (F)     (DEG/KT/KT) (MB)    (FT/S)
PASCAGOULA       1300                      1020.8
WAVELAND YACHT   1300      56              1020.5
GRAND ISLE       1300      62              1020.8
SOUTHWEST PASS   1300      45              1020.8
NEW CANAL        1300                      1020.5
SHELL BEACH      1300      57              1020.3

OFFSHORE STATIONS

STATION/POSITION TIME  TEMP    WIND        PRES    WAVE
                       AIR SEA DIR/SP/G            HT/PER
                 (UTC) (F)     (DEG/KT/KT) (MB)    (FT/S)
64 S DAUPHIN ISL 1249   70 71  140/ 10/ 12 1021.3    2/ 7

$$




USA.gov is the U.S. government's official web portal to all federal, state and local government web resources and services.